(221953) = 1994 TC13 = 2005 QG58

Discovered at Kitt Peak on 1994-10-10 by Spacewatch.

Orbit

Orbit type: Main Belt

Note: WebGL enabled browser required.

epoch2023-09-13.0
epoch JD2460200.5
perihelion date2022-01-13.93081
perihelion JD2459593.43081
argument of perihelion (°)149.44423
ascending node (°)351.65589
inclination (°)4.80765
eccentricity0.1323862
perihelion distance (AU)2.0820368
Tisserand w.r.t. Jupiter3.5
ΔV w.r.t. Earth (km/sec)9.1
semimajor axis (AU)2.3997275
mean anomaly (°)160.95302
mean daily motion (°/day)0.26513130
aphelion distance (AU)2.717
period (years)3.72
P-vector [x]-0.77850403
P-vector [y]0.55757140
P-vector [z]0.28817637
Q-vector [x]-0.62752176
Q-vector [y]-0.68256648
Q-vector [z]-0.37459237
absolute magnitude16.54
phase slope0.15
uncertainty0
referenceMPEC 2023-X102
observations used613
oppositions13
arc length (days)10613
first opposition used1994
last opposition used2023
residual rms (arc-secs)0.68
perturbers coarse indicatorM-v
perturbers precise indicator003Ek
first observation date used1994-10-10.0
last observation date used2023-10-31.0
computer nameMPCLINUX
JD of orbit computation2456760.751222
perihelion JD uncertainty (days)7.4887E-05
argument of perihelion uncertainty (°)5.0244E-05
ascending node uncertainty (°)4.4287E-05
inclination uncertainty (°)5.3425E-06
eccentricity uncertainty 5.0740E-08
perihelion distance uncertainty (AU)1.2308E-07
Minimum Orbit Intersection Distances (in AU)
for orbit epoch: 2460200.5, reference: E2023-XA2
Mercury1.72985
Venus1.36358
Earth1.09493
Mars0.41953
Jupiter2.29353
Saturn6.79623
Uranus16.329
Neptune27.2538

Observations

628 total observations over interval: 1994 10 10.19315 – 2023 10 31.217058
These data are available for download (format description).

Date (UT) J2000 RA J2000 Dec Magn Location Ref
1994 10 10.19315 00 25 53.64 +05 38 10.1 21.0 V 691 – Steward Observatory, Kitt Peak-Spacewatch MPS 79456
1994 10 10.20143 00 25 53.10 +05 38 08.9 21.1 V 691 – Steward Observatory, Kitt Peak-Spacewatch MPS 79456
1994 10 10.20923 00 25 52.66 +05 38 06.6 22.0 V 691 – Steward Observatory, Kitt Peak-Spacewatch MPS 79456
1994 10 10.39871 00 25 41.44 +05 37 15.6 20.0 V 691 – Steward Observatory, Kitt Peak-Spacewatch MPC 24205
1994 10 10.40633 00 25 41.00 +05 37 13.8   691 – Steward Observatory, Kitt Peak-Spacewatch MPC 24205
1994 10 10.41400 00 25 40.57 +05 37 11.7   691 – Steward Observatory, Kitt Peak-Spacewatch MPC 24205
1994 10 11.30241 00 24 50.10 +05 33 16.7   691 – Steward Observatory, Kitt Peak-Spacewatch MPC 24205
1994 10 11.31013 00 24 49.64 +05 33 14.9 20.1 V 691 – Steward Observatory, Kitt Peak-Spacewatch MPC 24205
1994 10 11.31780 00 24 49.16 +05 33 12.3   691 – Steward Observatory, Kitt Peak-Spacewatch MPC 24205
1994 10 12.25516 00 23 56.33 +05 29 05.2   691 – Steward Observatory, Kitt Peak-Spacewatch MPC 24205
1994 10 12.26281 00 23 55.88 +05 29 03.7 20.0 V 691 – Steward Observatory, Kitt Peak-Spacewatch MPC 24205
1994 10 12.27049 00 23 55.44 +05 29 01.4   691 – Steward Observatory, Kitt Peak-Spacewatch MPC 24205
2005 08 25.40707 23 51 34.84 -01 26 55.3 19.9   644 – Palomar Mountain/NEAT MPS 140310
2005 08 25.41792 23 51 34.34 -01 26 57.2 19.9   644 – Palomar Mountain/NEAT MPS 140310
2005 08 25.42866 23 51 33.80 -01 26 58.7 20.8   644 – Palomar Mountain/NEAT MPS 140310
2005 08 27.43603 23 50 03.52 -01 33 19.0 19.7   644 – Palomar Mountain/NEAT MPS 140310
2005 08 27.46005 23 50 02.38 -01 33 23.8 20.0   644 – Palomar Mountain/NEAT MPS 140310
2005 08 27.48133 23 50 01.36 -01 33 28.1 20.1   644 – Palomar Mountain/NEAT MPS 140310
2005 08 30.30592 23 47 46.95 -01 43 04.8 20.4 V 691 – Steward Observatory, Kitt Peak-Spacewatch MPS 140310
2005 08 30.32328 23 47 46.04 -01 43 08.7 20.4 V 691 – Steward Observatory, Kitt Peak-Spacewatch MPS 140310
2005 08 30.34057 23 47 45.16 -01 43 12.5 20.6 V 691 – Steward Observatory, Kitt Peak-Spacewatch MPS 140310
2005 09 13.31832 23 35 05.45 -02 39 20.1 20.0 V 691 – Steward Observatory, Kitt Peak-Spacewatch MPS 141751
2005 09 13.33563 23 35 04.41 -02 39 24.6 20.0 V 691 – Steward Observatory, Kitt Peak-Spacewatch MPS 141751
2005 09 13.35363 23 35 03.36 -02 39 29.4 20.2 V 691 – Steward Observatory, Kitt Peak-Spacewatch MPS 141751
2005 09 30.21657 23 19 18.37 -03 49 04.9 20.5 V G96 – Mt. Lemmon Survey MPS 143227
2005 09 30.22279 23 19 18.01 -03 49 06.9 20.8 V G96 – Mt. Lemmon Survey MPS 143227
2005 09 30.22899 23 19 17.68 -03 49 07.8 20.5 V G96 – Mt. Lemmon Survey MPS 143227
2005 09 30.23522 23 19 17.36 -03 49 09.3 20.8 V G96 – Mt. Lemmon Survey MPS 143227
2005 10 25.17705 23 04 13.11 -04 45 19.2 20.9 V G96 – Mt. Lemmon Survey MPS 145752
2005 10 25.18303 23 04 13.00 -04 45 19.7 20.9 V G96 – Mt. Lemmon Survey MPS 145752
2005 10 25.18904 23 04 12.90 -04 45 19.9 20.6 V G96 – Mt. Lemmon Survey MPS 145752
2005 10 25.19503 23 04 12.79 -04 45 20.1 21.3 V G96 – Mt. Lemmon Survey MPS 145752
2005 11 29.11619 23 09 36.43 -03 36 47.7 21.9 V G96 – Mt. Lemmon Survey MPS 151767
2005 11 29.12329 23 09 36.64 -03 36 43.9 21.2 V G96 – Mt. Lemmon Survey MPS 151767
2005 11 29.13045 23 09 36.90 -03 36 42.5 21.2 V G96 – Mt. Lemmon Survey MPS 151767
2005 11 29.13758 23 09 37.11 -03 36 41.1 21.1 V G96 – Mt. Lemmon Survey MPS 151767
2006 11 19.44040 09 15 31.59 +21 37 48.0 20.3   704 – Lincoln Laboratory ETS, New Mexico MPS 188254
2006 11 19.46544 09 15 33.22 +21 37 43.2 20.0   704 – Lincoln Laboratory ETS, New Mexico MPS 188254
2006 11 19.47794 09 15 34.09 +21 37 40.2 19.9   704 – Lincoln Laboratory ETS, New Mexico MPS 188254
2007 01 08.41413 09 32 12.90 +21 08 58.5 20.0 V 691 – Steward Observatory, Kitt Peak-Spacewatch MPS 195406
2007 01 08.43271 09 32 12.30 +21 09 01.0 20.2 V 691 – Steward Observatory, Kitt Peak-Spacewatch MPS 195406
2007 01 08.44776 09 32 11.77 +21 09 03.2 20.0 V 691 – Steward Observatory, Kitt Peak-Spacewatch MPS 195406
2007 01 10.33259 09 31 08.50 +21 13 35.7 18.8 V 703 – Catalina Sky Survey MPS 195406
2007 01 10.33311 09 31 08.43 +21 13 37.5 20.6 V 703 – Catalina Sky Survey MPS 195406
2007 01 10.34026 09 31 08.11 +21 13 38.3 19.0 V 703 – Catalina Sky Survey MPS 195406
2007 01 10.34080 09 31 08.14 +21 13 38.1 19.3 V 703 – Catalina Sky Survey MPS 195406
2007 01 10.34799 09 31 07.75 +21 13 39.2 19.5 V 703 – Catalina Sky Survey MPS 195406
2007 01 10.34852 09 31 07.86 +21 13 39.2 19.2 V 703 – Catalina Sky Survey MPS 195406
2007 01 10.35572 09 31 07.50 +21 13 40.6 19.2 V 703 – Catalina Sky Survey MPS 195406
2007 01 10.35626 09 31 07.50 +21 13 40.5 19.0 V 703 – Catalina Sky Survey MPS 195406
2007 01 16.33439 09 26 58.45 +21 29 34.1 19.0 V 703 – Catalina Sky Survey MPS 196271
2007 01 16.34091 09 26 58.20 +21 29 36.0 19.1 V 703 – Catalina Sky Survey MPS 196271
2007 01 16.34744 09 26 57.84 +21 29 36.0 19.2 V 703 – Catalina Sky Survey MPS 196271
2007 01 16.35402 09 26 57.51 +21 29 37.7 19.1 V 703 – Catalina Sky Survey MPS 196271
2007 01 16.41052 09 26 54.75 +21 29 45.4 18.9 R 699 – Lowell Observatory-LONEOS MPS 196271
2007 01 16.42517 09 26 53.91 +21 29 49.5   699 – Lowell Observatory-LONEOS MPS 196271
2007 01 16.43984 09 26 53.10 +21 29 51.9   699 – Lowell Observatory-LONEOS MPS 196271
2007 01 16.45452 09 26 52.63 +21 29 53.3   699 – Lowell Observatory-LONEOS MPS 196271
2007 01 17.29159 09 26 12.57 +21 32 15.1 19.3 V 691 – Steward Observatory, Kitt Peak-Spacewatch MPS 196271
2007 01 17.30899 09 26 11.66 +21 32 18.0 19.5 V 691 – Steward Observatory, Kitt Peak-Spacewatch MPS 196271
2007 01 17.32640 09 26 10.76 +21 32 21.1 19.4 V 691 – Steward Observatory, Kitt Peak-Spacewatch MPS 196271
2007 01 21.28620 09 22 44.28 +21 43 32.3 19.7   704 – Lincoln Laboratory ETS, New Mexico MPS 196931
2007 01 21.29844 09 22 43.54 +21 43 33.3 19.4   704 – Lincoln Laboratory ETS, New Mexico MPS 196931
2007 01 21.31068 09 22 42.88 +21 43 36.6 19.7   704 – Lincoln Laboratory ETS, New Mexico MPS 196931
2007 01 24.25232 09 19 55.12 +21 51 48.4 19.2 V 691 – Steward Observatory, Kitt Peak-Spacewatch MPS 196931
2007 01 24.27107 09 19 54.14 +21 51 49.6 19.3   704 – Lincoln Laboratory ETS, New Mexico MPS 196931
2007 01 24.27122 09 19 53.96 +21 51 51.6 19.1 V 691 – Steward Observatory, Kitt Peak-Spacewatch MPS 196931
2007 01 24.28342 09 19 53.29 +21 51 51.7 19.1   704 – Lincoln Laboratory ETS, New Mexico MPS 196931
2007 01 24.28664 09 19 53.01 +21 51 54.1 19.1 V 691 – Steward Observatory, Kitt Peak-Spacewatch MPS 196931
2007 01 24.29569 09 19 52.55 +21 51 54.1 19.2   704 – Lincoln Laboratory ETS, New Mexico MPS 196931
2007 01 24.30795 09 19 51.79 +21 51 56.0 19.5   704 – Lincoln Laboratory ETS, New Mexico MPS 196931
2007 01 24.32023 09 19 51.03 +21 51 59.1 19.5   704 – Lincoln Laboratory ETS, New Mexico MPS 196931
2007 01 28.30043 09 15 48.52 +22 02 30.2 20.1 V 691 – Steward Observatory, Kitt Peak-Spacewatch MPS 197955
2007 01 28.32204 09 15 47.05 +22 02 33.6 19.0 V 691 – Steward Observatory, Kitt Peak-Spacewatch MPS 197955
2007 01 28.33997 09 15 45.88 +22 02 36.4 18.9 V 691 – Steward Observatory, Kitt Peak-Spacewatch MPS 197955
2007 02 06.34887 09 06 04.10 +22 21 37.2 18.3 R 644 – Palomar Mountain/NEAT MPS 198597
2007 02 06.36925 09 06 02.72 +22 21 39.0 18.2 R 644 – Palomar Mountain/NEAT MPS 198597
2007 02 06.38968 09 06 01.32 +22 21 40.9 18.2 R 644 – Palomar Mountain/NEAT MPS 198597
2007 02 07.24292 09 05 06.36 +22 23 01.4 18.0 V 703 – Catalina Sky Survey MPS 198597
2007 02 07.25122 09 05 05.78 +22 23 02.4 17.7 V 703 – Catalina Sky Survey MPS 198597
2007 02 07.26226 09 05 04.99 +22 23 03.9 17.4 V 703 – Catalina Sky Survey MPS 198597
2007 02 07.26876 09 05 04.48 +22 23 03.8 18.3 V 703 – Catalina Sky Survey MPS 198597
2007 02 08.24307 09 04 01.67 +22 24 27.5 18.1 R 644 – Palomar Mountain/NEAT MPS 199387
2007 02 08.26347 09 04 00.29 +22 24 29.3 18.3 R 644 – Palomar Mountain/NEAT MPS 199387
2007 02 08.28388 09 03 58.91 +22 24 31.0 18.2 R 644 – Palomar Mountain/NEAT MPS 199387
2007 02 10.29243 09 01 50.40 +22 27 00.2 18.2 R 644 – Palomar Mountain/NEAT MPS 199387
2007 02 10.31271 09 01 49.06 +22 27 01.7 18.2 R 644 – Palomar Mountain/NEAT MPS 199387
